Regional Weather Roundup
Issued by NWS Jackson, KY

Home | Current Version | Previous Version | Graphics & Text | Print | Product List | Glossary On
Versions: 1 2 3 4 5 6 7 8 9 10 11 12 13 14 15 16 17 18 19 20 21 22 23 24 25 26 27
000
ASUS43 KJKL 241510
RWRJKL

EAST KENTUCKY HOURLY WEATHER ROUNDUP
NATIONAL WEATHER SERVICE JACKSON KY
1100 AM EDT WED MAY 24 2017

NOTE: "FAIR" INDICATES FEW OR NO CLOUDS BELOW 12,000 FEET WITH
NO SIGNIFICANT WEATHER AND/OR OBSTRUCTIONS TO VISIBILITY.

* THESE REPORTS ARE NOT UNDER NWS QUALITY CONTROL AND MAY NOT
  REPORT WEATHER SUCH AS PRECIPITATION AND FOG.

KYZ079-080-083-085-087-088-110-112-115-119-120-241600
...EASTERN KENTUCKY...

CITY           SKY/WX    TMP DP  RH WIND       PRES   REMARKS
JACKSON        LGT RAIN  62  59  90 CALM      29.54F
LONDON         RAIN      61  59  93 CALM      29.52F FOG
SOMERSET*      RAIN      59  59 100 CALM      29.52F
MONTICELLO*    LGT RAIN  61  57  88 N6        29.50F FOG
WILLIAMSBURG*  CLOUDY    61  61 100 CALM      29.52S
MIDDLESBORO*   TSTM      61  61 100 CALM      29.51F
HARLAN APT*    CLOUDY    63  59  88 CALM      29.52S
PIKE CO APT*   PTSUNNY   67  64  89 SE7       29.53F
BIG SANDY APT* CLOUDY    67  62  83 CALM      29.53F
MOREHEAD APT*  CLOUDY    64  57  77 VRB6      29.55F
ASHLAND*       CLOUDY    66  63  88 E3        29.52F
$$

KYZ035-036-041-042-044-050-067-078-099-241600
...CENTRAL KENTUCKY...

CITY           SKY/WX    TMP DP  RH WIND       PRES   REMARKS
MT STERLING*   CLOUDY    63  59  88 SE5       29.54S
FLEMING/MASON* CLOUDY    64  60  87 E5        29.53F
DANVILLE*      LGT RAIN  61  59  94 SE7       29.50F
LEXINGTON      RAIN      63  59  87 SE6       29.51F
FRANKFORT      CLOUDY    64  59  83 SE3       29.50S
LOUISVILLE     LGT RAIN  63  58  83 NW6       29.49F
LEBANON*       CLOUDY    63  63 100 CALM      29.50F FOG
GLASGOW*       PTSUNNY   62  57  83 CALM      29.47F
BOWLING GREEN  LGT RAIN  62  60  93 N5        29.47F
$$

KYZ091>093-OHZ055-061-077-WVZ005-015-034-035-042-241600
...SOUTHERN OHIO/WEST VIRGINIA...

CITY           SKY/WX    TMP DP  RH WIND       PRES   REMARKS
COVINGTON      LGT RAIN  63  60  90 SE7       29.51F
COLUMBUS       CLOUDY    65  58  78 E10       29.55F
DAYTON         CLOUDY    67  58  72 E12       29.54S
WILMINGTON     CLOUDY    65  59  81 E8        29.53F
HUNTINGTON     CLOUDY    67  59  75 VRB6      29.54F
CHARLESTON     CLOUDY    66  59  78 E3        29.55F
PINEVILLE*     PTSUNNY   68  59  71 MISG      29.63F
BECKLEY        CLOUDY    60  55  83 SE13G23   29.64S
BLUEFIELD      CLOUDY    55  53  93 VRB5G18   29.65F
LOGAN CO APT*  PTSUNNY   68  61  77 VRB6G14   29.55F
$$

VAZ002-007-008-TNZ017-027-036-066-071-241600
...SOUTHWEST VIRGINIA/EAST TENNESSEE...

CITY           SKY/WX    TMP DP  RH WIND       PRES   REMARKS
WISE*          CLOUDY    64  61  88 SE8       29.58F
JONESVILLE*    PTSUNNY   66  59  77 E7        29.52F
ABINGDON*      MOSUNNY   71  63  76 SE8       29.58F
BRISTOL        CLOUDY    70  62  76 E5        29.53F
MORRISTOWN*    CLOUDY    70  63  78 E9G15     29.48F
SEVIERVILLE*   MOSUNNY   66  61  82 CALM      29.47F
KNOXVILLE      RAIN      63  62  97 W16G24    29.49S FOG
LAFOLLETTE*    CLOUDY    61  61 100 E5        29.53F FOG
OAK RIDGE      HVY RAIN  62  60  93 W8G17     29.52R VSB 3/4
CROSSVILLE     PTSUNNY   61  58  90 CALM      29.51F
NASHVILLE      LGT RAIN  63  61  93 E5        29.44F
$$

...KEY TO REMARKS...
VSB - VISIBILITY IN MILES
WCI - WIND CHILL INDEX
HX  - HEAT INDEX

$$




USA.gov is the U.S. government's official web portal to all federal, state and local government web resources and services.